Flight Track Log - Related Links

Times and Time Zones

All times are in EDT time to prevent confusion due to time zone crossing. See the SKW7363 flight status page for this flight to view local times or setup timezone preferences in your user account.


Time Position Orientation Groundspeed Altitude Reporting Facility
EDT Latitude Longitude Course Direction KTS MPH feet Rate Location/Type
Mon 10:30:29 AM 44.8667 -93.1333 337° Northwest 192 221 3,100  Level Minneapolis TRACON
Mon 10:31:29 AM 44.8667 -93.0667 90° East 220 253 5,700 2,450 Climbing Minneapolis TRACON
Mon 10:32:00 AM 45.1657 -93.3851 338° Northwest  Level FlightAware Approximate
Mon 10:32:29 AM 44.9167 -93.0333 25° Northeast 231 266 8,000  Level Minneapolis TRACON
Mon 10:33:00 AM 45.2651 -93.4434 335° Northwest  Level FlightAware Approximate
Mon 10:33:29 AM 44.9833 -93.0333 360° North 243 280 10,900  Level Minneapolis TRACON
Mon 10:34:00 AM 45.3626 -93.5083 335° Northwest  Level FlightAware Approximate
Mon 10:34:00 AM 45.0214 -93.0408 352° North 242 278 12,300  Level Minneapolis Center
Mon 10:35:00 AM 45.4611 -93.5700 337° Northwest  Level FlightAware Approximate
Mon 10:35:02 AM 45.0892 -93.0478 356° North 246 283 14,900  Level Minneapolis Center
Mon 10:36:04 AM 45.1597 -93.0567 355° North 255 293 17,000 1,306 Climbing Minneapolis Center
Mon 10:37:06 AM 45.2306 -93.0672 354° North 256 295 17,600 1,597 Climbing Minneapolis Center
Mon 10:38:08 AM 45.3183 -93.0814 354° North 265 305 20,300 2,226 Climbing Minneapolis Center
Mon 10:39:10 AM 45.3967 -93.0928 354° North 281 323 22,200 1,839 Climbing Minneapolis Center
Mon 10:40:12 AM 45.4758 -93.1028 355° North 286 329 24,100 1,790 Climbing Minneapolis Center
Mon 10:41:14 AM 45.5578 -93.1186 352° North 296 341 25,900 919 Climbing Minneapolis Center
Mon 10:42:16 AM 45.6256 -93.1825 327° Northwest 292 336 26,000 44 Climbing Minneapolis Center
Mon 10:43:30 AM 45.6931 -93.2419 328° Northwest 286 329 26,000  Level Minneapolis Center
Mon 10:44:32 AM 45.7736 -93.3136 328° Northwest 287 330 26,000  Level Minneapolis Center
Mon 10:45:35 AM 45.8569 -93.3886 328° Northwest 295 339 26,000  Level Minneapolis Center
Mon 10:46:37 AM 45.9258 -93.4506 328° Northwest 292 336 26,000  Level Minneapolis Center
Mon 10:47:39 AM 45.9944 -93.5128 328° Northwest 293 337 26,000  Level Minneapolis Center
Mon 10:48:41 AM 46.0625 -93.5750 328° Northwest 292 336 26,000  Level Minneapolis Center
Mon 10:49:43 AM 46.1433 -93.6464 329° Northwest 286 329 26,000  Level Minneapolis Center
Mon 10:50:45 AM 46.2097 -93.7086 327° Northwest 286 329 26,000  Level Minneapolis Center
Mon 10:51:47 AM 46.2686 -93.7608 328° Northwest 286 329 26,000  Level Minneapolis Center
Mon 10:52:49 AM 46.3347 -93.8217 328° Northwest 283 326 26,000  Level Minneapolis Center
Mon 10:53:51 AM 46.4136 -93.8967 327° Northwest 282 325 26,000 -145 Level Minneapolis Center
Mon 10:54:53 AM 46.4797 -93.9558 328° Northwest 281 323 25,700 -968 Descending Minneapolis Center
Mon 10:55:55 AM 46.5450 -94.0167 327° Northwest 279 321 24,000 -1,500 Descending Minneapolis Center
Mon 10:56:57 AM 46.6114 -94.0767 328° Northwest 281 323 22,600 -1,248 Descending Minneapolis Center
Mon 10:58:00 AM 46.6750 -94.1358 327° Northwest 274 315 21,400 -1,392 Descending Minneapolis Center
Mon 10:59:02 AM 46.7478 -94.2025 328° Northwest 260 299 19,700 -1,500 Descending Minneapolis Center
Mon 11:00:04 AM 46.8083 -94.2594 327° Northwest 259 298 18,300 -1,403 Descending Minneapolis Center
Mon 11:01:06 AM 46.8689 -94.3156 328° Northwest 257 296 16,800 -1,220 Descending Minneapolis Center
Mon 11:02:07 AM 46.9161 -94.3578 329° Northwest 252 290 15,800 -1,306 Descending Minneapolis Center
Mon 11:03:10 AM 46.9836 -94.4225 327° Northwest 243 280 14,100 -1,584 Descending Minneapolis Center
Mon 11:04:12 AM 47.0389 -94.4761 327° Northwest 240 276 12,500 -1,317 Descending Minneapolis Center
Mon 11:05:13 AM 47.0842 -94.5186 327° Northwest 240 276 11,400 -1,500 Descending Minneapolis Center
Mon 11:06:16 AM 47.1614 -94.5939 326° Northwest 239 275 9,400 -1,584 Descending Minneapolis Center
Mon 11:07:18 AM 47.2158 -94.6439 328° Northwest 234 269 8,100 -1,103 Descending Minneapolis Center
Mon 11:08:32 AM 47.2681 -94.6928 328° Northwest 228 262 6,900 -1,235 Descending Minneapolis Center
Mon 11:09:34 AM 47.3350 -94.7286 340° North 216 249 5,300 -1,344 Descending Minneapolis Center
Mon 11:10:37 AM 47.3942 -94.7531 344° North 217 250 4,100 -624 Descending Minneapolis Center
Mon 11:11:39 AM 47.4508 -94.7756 345° North 214 246 4,000 -48 Descending Minneapolis Center
Mon 11:12:41 AM 47.5156 -94.8258 332° Northwest 218 251 4,000  Level Minneapolis Center
Mon 11:13:43 AM 47.5647 -94.8769 325° Northwest 219 252 4,000  Level Minneapolis Center
Mon 11:14:45 AM 47.6058 -94.9294 319° Northwest 207 238 4,000  Level Minneapolis Center
Mon 11:15:47 AM 47.6372 -94.9819 312° West 185 213 4,000 -484 Level Minneapolis Center
Mon 11:16:49 AM 47.6250 -95.0383 252° West 199 229 3,000 -484 Descending Minneapolis Center
Mon 11:17:51 AM 47.5858 -95.0500 191° South 179 206 3,000 -339 Level Minneapolis Center
Mon 11:18:53 AM 47.5514 -94.9961 133° Southeast 158 182 2,300 -435 Descending Minneapolis Center
Mon 11:19:55 AM 47.5217 -94.9550 137° Southeast 156 180 2,100 -194 Descending Minneapolis Center

Login

Don't have an account? Register now (free) for customized features, flight alerts, and more!